Location: Lake Lucerne
(45.5315°N, 88.8489°W)
Time: 10:46:25
(UTC-05:00)

OTV 5 (USA 277) - Visible Passes

Search period start: 27 May 2018 00:00
Search period end: 06 June 2018 00:00
Orbit: 308 x 326 km, 54.5° (Epoch: 06 May)

Date Brightness Start Highest point End Pass type
(mag) Time Alt. Az. Time Alt. Az. Time Alt. Az.
30 May ? 04:08:51 10° S 04:10:57 20° SE 04:13:04 10° E visible
31 May ? 04:22:34 10° SW 04:25:12 50° SE 04:27:54 10° ENE visible
01 Jun ? 03:05:31 13° SE 03:05:38 13° SE 03:06:56 10° ESE visible
02 Jun ? 03:19:15 27° SSE 03:19:48 30° SE 03:22:18 10° ENE visible
03 Jun ? 03:32:56 30° SW 03:34:08 82° SE 03:36:53 10° NE visible
04 Jun ? 02:15:43 15° E 02:15:43 15° E 02:16:31 10° E visible
04 Jun ? 03:46:34 15° W 03:48:34 41° NNW 03:51:14 10° NE visible
05 Jun ? 02:29:18 39° E 02:29:18 39° E 02:31:22 10° ENE visible
05 Jun ? 04:00:51 10° WNW 04:03:09 23° NNW 04:05:28 10° NE visible
